AFR722 LFPG-FCBB

Flight info

Callsign AFR722
Flight time N/A
Altitude 39000
Route OKASI DCT SIQLE DCT UTUVA DCT LIQID DCT SALIN M731 DIVKO DCT SOSUR UM989 OLNUL DCT KAMER UM998 TIDOU/N0483F410 UM998 MIU UG727 TIVAL NAMOT2V
Aircraft A359/H-SABDE2E3GHIJ1J2J3J4J5M1P2RWXYZ/LB1D1

Departure

Time N/A
Airport Charles de Gaulle International Airport (LFPG)

Arrival

Time 2026-04-14 20:11
Airport Maya-Maya International Airport (FCBB)
Time Latitude Longitude Altitude Speed Heading
2026-04-14 17:07 19.15269 10.67854 38999 ft 492 kts 155°
2026-04-14 17:08 19.09035 10.70882 39003 ft 492 kts 155°
2026-04-14 17:08 19.02812 10.73904 39001 ft 492 kts 155°
2026-04-14 17:09 18.96621 10.76907 39002 ft 492 kts 155°
2026-04-14 17:09 18.90398 10.79923 39003 ft 492 kts 155°
2026-04-14 17:10 18.84178 10.82936 38996 ft 492 kts 155°
2026-04-14 17:10 18.77950 10.85952 38996 ft 492 kts 155°
2026-04-14 17:11 18.71754 10.88947 39000 ft 492 kts 155°
2026-04-14 17:11 18.65527 10.91954 39000 ft 492 kts 155°
2026-04-14 17:12 18.59301 10.94959 39006 ft 492 kts 155°
2026-04-14 17:12 18.53072 10.97964 39003 ft 492 kts 155°
2026-04-14 17:13 18.46850 11.00962 39000 ft 492 kts 155°
2026-04-14 17:13 18.40619 11.03963 39003 ft 492 kts 155°
2026-04-14 17:14 18.34431 11.06939 39008 ft 492 kts 155°
2026-04-14 17:14 18.28193 11.09937 39001 ft 492 kts 155°
2026-04-14 17:15 18.21961 11.12931 39000 ft 492 kts 155°
2026-04-14 17:15 18.15733 11.15920 38999 ft 492 kts 155°
2026-04-14 17:16 18.09534 11.18893 38998 ft 492 kts 155°
2026-04-14 17:16 18.03301 11.21879 38999 ft 492 kts 155°
2026-04-14 17:17 17.97069 11.24863 38999 ft 492 kts 155°
2026-04-14 17:17 17.90832 11.27847 39000 ft 492 kts 155°
2026-04-14 17:18 17.84606 11.30823 39006 ft 492 kts 155°
2026-04-14 17:18 17.78360 11.33807 39007 ft 492 kts 155°
2026-04-14 17:19 17.72168 11.36763 38996 ft 492 kts 155°
2026-04-14 17:19 17.65930 11.39738 39004 ft 492 kts 155°
2026-04-14 17:20 17.59701 11.42707 39000 ft 492 kts 156°
2026-04-14 17:20 17.53458 11.45680 38998 ft 492 kts 156°
2026-04-14 17:21 17.47259 11.48630 38999 ft 492 kts 156°
2026-04-14 17:21 17.40831 11.51060 38999 ft 491 kts 163°
2026-04-14 17:22 17.34263 11.53074 38997 ft 492 kts 164°
2026-04-14 17:22 17.27674 11.55023 38999 ft 492 kts 164°
2026-04-14 17:23 17.21092 11.56973 38996 ft 492 kts 164°
2026-04-14 17:23 17.14501 11.58937 39006 ft 492 kts 164°
2026-04-14 17:24 17.07917 11.60903 38996 ft 492 kts 164°
2026-04-14 17:24 17.01374 11.62856 39000 ft 492 kts 164°
2026-04-14 17:25 16.94795 11.64818 38998 ft 492 kts 164°
2026-04-14 17:25 16.88214 11.66779 39004 ft 492 kts 164°
2026-04-14 17:26 16.81629 11.68740 39002 ft 492 kts 164°
2026-04-14 17:26 16.75053 11.70698 38998 ft 492 kts 164°
2026-04-14 17:27 16.68507 11.72645 38999 ft 492 kts 164°
2026-04-14 17:27 16.61921 11.74600 38995 ft 492 kts 164°
2026-04-14 17:28 16.55326 11.76556 38997 ft 492 kts 164°
2026-04-14 17:28 16.48744 11.78508 38998 ft 492 kts 164°
2026-04-14 17:29 16.42202 11.80447 38998 ft 492 kts 164°
2026-04-14 17:29 16.35604 11.82402 38999 ft 492 kts 164°
2026-04-14 17:30 16.30135 11.84021 39004 ft 492 kts 164°
2026-04-14 17:30 16.23551 11.85969 38997 ft 492 kts 164°
2026-04-14 17:31 16.16961 11.87917 39000 ft 492 kts 164°
2026-04-14 17:31 16.10366 11.89865 38999 ft 492 kts 164°
2026-04-14 17:32 16.03824 11.91797 39002 ft 492 kts 164°
2026-04-14 17:32 15.97247 11.93737 38998 ft 492 kts 164°
2026-04-14 17:33 15.90660 11.95679 38997 ft 492 kts 164°
2026-04-14 17:34 15.80781 11.98589 38997 ft 491 kts 164°
2026-04-14 17:34 15.74204 12.00525 39000 ft 491 kts 164°
2026-04-14 17:35 15.67617 12.02462 39002 ft 491 kts 164°
2026-04-14 17:35 15.61037 12.04396 38999 ft 491 kts 164°
2026-04-14 17:36 15.54453 12.06330 39005 ft 491 kts 164°
2026-04-14 17:36 15.47915 12.08250 39002 ft 491 kts 164°
2026-04-14 17:37 15.41334 12.10180 38997 ft 491 kts 164°
2026-04-14 17:37 15.34754 12.12109 39003 ft 491 kts 164°
2026-04-14 17:38 15.28177 12.14036 38996 ft 491 kts 164°
2026-04-14 17:38 15.21591 12.15961 39000 ft 491 kts 164°
2026-04-14 17:39 15.15010 12.17877 39005 ft 491 kts 164°
2026-04-14 17:39 15.08425 12.19794 38999 ft 491 kts 164°
2026-04-14 17:40 15.01840 12.21710 38997 ft 491 kts 164°
2026-04-14 17:40 14.95258 12.23624 38997 ft 491 kts 164°
2026-04-14 17:41 14.88715 12.25527 38996 ft 491 kts 164°
2026-04-14 17:41 14.82131 12.27439 39007 ft 491 kts 164°
2026-04-14 17:42 14.75539 12.29353 39001 ft 491 kts 164°
2026-04-14 17:42 14.68959 12.31262 38996 ft 491 kts 164°
2026-04-14 17:43 14.62368 12.33174 39002 ft 491 kts 164°
2026-04-14 17:43 14.55789 12.35080 39004 ft 491 kts 165°
2026-04-14 17:44 14.49251 12.36974 38996 ft 491 kts 165°
2026-04-14 17:44 14.42672 12.38878 38996 ft 491 kts 165°
2026-04-14 17:45 14.36078 12.40785 39001 ft 491 kts 165°
2026-04-14 17:45 14.29502 12.42686 38998 ft 491 kts 165°
2026-04-14 17:46 14.22922 12.44587 39008 ft 491 kts 165°
2026-04-14 17:46 14.16372 12.46480 39004 ft 491 kts 165°
2026-04-14 17:47 14.09742 12.48381 39002 ft 491 kts 165°
2026-04-14 17:47 14.03198 12.50249 39004 ft 491 kts 165°
2026-04-14 17:48 13.96615 12.52130 39002 ft 491 kts 165°
2026-04-14 17:48 13.93326 12.53078 37290 ft 491 kts 168°
2026-04-14 17:48 13.90034 12.54028 37539 ft 490 kts 169°
2026-04-14 17:48 13.86741 12.54969 37796 ft 490 kts 169°
2026-04-14 17:49 13.83456 12.55904 38059 ft 489 kts 169°
2026-04-14 17:49 13.80222 12.56824 38321 ft 487 kts 169°
2026-04-14 17:49 13.76956 12.57754 38551 ft 486 kts 169°
2026-04-14 17:49 13.73695 12.58683 38689 ft 487 kts 169°
2026-04-14 17:50 13.70412 12.59618 38706 ft 491 kts 169°
2026-04-14 17:50 13.63776 12.61507 38704 ft 498 kts 169°
2026-04-14 17:51 13.57092 12.63415 38703 ft 497 kts 168°
2026-04-14 17:51 13.50427 12.65317 38707 ft 497 kts 168°
2026-04-14 17:52 13.43764 12.67216 38708 ft 497 kts 168°
2026-04-14 17:52 13.37111 12.69110 38704 ft 496 kts 168°
2026-04-14 17:53 13.30496 12.70993 38703 ft 496 kts 168°
2026-04-14 17:53 13.23833 12.72870 38706 ft 496 kts 169°
2026-04-14 17:54 13.17159 12.74672 38706 ft 496 kts 169°
2026-04-14 17:54 13.10487 12.76464 38709 ft 496 kts 169°
2026-04-14 17:55 13.03814 12.78268 38709 ft 496 kts 169°
2026-04-14 17:55 12.97145 12.80077 38712 ft 496 kts 169°
2026-04-14 17:56 12.90474 12.81887 38711 ft 496 kts 169°
2026-04-14 17:56 12.83798 12.83697 38713 ft 496 kts 169°
2026-04-14 17:57 12.77120 12.85506 38715 ft 496 kts 169°
2026-04-14 17:57 12.70436 12.87315 38718 ft 496 kts 169°
2026-04-14 17:58 12.63790 12.89114 38717 ft 496 kts 169°
2026-04-14 17:58 12.57104 12.90922 38720 ft 496 kts 169°
2026-04-14 17:59 12.50418 12.92729 38725 ft 497 kts 169°
2026-04-14 17:59 12.43729 12.94535 38731 ft 497 kts 169°
2026-04-14 18:00 12.37080 12.96331 38733 ft 497 kts 169°
2026-04-14 18:00 12.27034 12.99045 38741 ft 498 kts 169°
2026-04-14 18:01 12.20332 13.00849 38745 ft 498 kts 169°
2026-04-14 18:01 12.13621 13.02655 38751 ft 498 kts 169°
2026-04-14 18:02 12.06924 13.04458 38751 ft 498 kts 168°
2026-04-14 18:02 12.00221 13.06261 38759 ft 498 kts 168°
2026-04-14 18:03 11.93522 13.08063 38759 ft 498 kts 168°
2026-04-14 18:03 11.86793 13.09714 38766 ft 495 kts 175°
2026-04-14 18:04 11.79964 13.10549 38767 ft 493 kts 177°
2026-04-14 18:04 11.73167 13.11227 38769 ft 493 kts 178°
2026-04-14 18:05 11.66323 13.11891 38784 ft 493 kts 178°
2026-04-14 18:05 11.59485 13.12565 38775 ft 494 kts 177°
2026-04-14 18:06 11.52681 13.13246 38779 ft 494 kts 177°
2026-04-14 18:06 11.45831 13.13932 38779 ft 494 kts 177°
2026-04-14 18:07 11.38987 13.14618 38776 ft 494 kts 177°
2026-04-14 18:07 11.32135 13.15303 38775 ft 494 kts 177°
2026-04-14 18:08 11.25287 13.15988 38779 ft 494 kts 177°
2026-04-14 18:08 11.18478 13.16668 38794 ft 494 kts 177°
2026-04-14 18:09 11.11630 13.17352 38790 ft 494 kts 177°
2026-04-14 18:09 11.04771 13.18036 38791 ft 494 kts 177°
2026-04-14 18:10 10.97917 13.18720 38784 ft 494 kts 177°
2026-04-14 18:10 10.91066 13.19403 38799 ft 494 kts 176°
2026-04-14 18:11 10.84272 13.20081 38797 ft 494 kts 176°
2026-04-14 18:11 10.77431 13.20762 38801 ft 494 kts 176°
2026-04-14 18:12 10.70595 13.21443 38806 ft 494 kts 176°
2026-04-14 18:12 10.63752 13.22124 38807 ft 493 kts 176°
2026-04-14 18:13 10.56915 13.22805 38809 ft 493 kts 176°
2026-04-14 18:13 10.50066 13.23486 38802 ft 494 kts 176°
2026-04-14 18:14 10.43535 13.24136 38805 ft 495 kts 176°
2026-04-14 18:14 10.36676 13.24817 38810 ft 495 kts 176°
2026-04-14 18:15 10.29810 13.25499 38821 ft 496 kts 176°
2026-04-14 18:15 10.22918 13.26184 38810 ft 497 kts 176°
2026-04-14 18:16 10.17193 13.26752 38803 ft 497 kts 176°
2026-04-14 18:16 10.09181 13.27546 38811 ft 497 kts 176°
2026-04-14 18:17 10.03451 13.28115 38799 ft 497 kts 176°
2026-04-14 18:17 9.96572 13.28755 38793 ft 496 kts 176°
2026-04-14 18:18 9.89696 13.29359 38781 ft 496 kts 176°
2026-04-14 18:18 9.82829 13.29966 38779 ft 495 kts 176°
2026-04-14 18:19 9.75963 13.30581 38762 ft 495 kts 176°
2026-04-14 18:19 9.69097 13.31200 38757 ft 494 kts 176°
2026-04-14 18:20 9.62256 13.31816 38754 ft 493 kts 176°
2026-04-14 18:20 9.55457 13.32430 38740 ft 492 kts 176°
2026-04-14 18:21 9.48630 13.33058 38753 ft 492 kts 176°
2026-04-14 18:21 9.41807 13.33686 38744 ft 491 kts 176°
2026-04-14 18:22 9.35048 13.34307 38746 ft 490 kts 176°
2026-04-14 18:22 9.28256 13.34956 38748 ft 490 kts 175°
2026-04-14 18:23 9.21461 13.35680 38739 ft 490 kts 175°
2026-04-14 18:23 9.14668 13.36408 38742 ft 490 kts 175°
2026-04-14 18:24 9.07884 13.37123 38740 ft 490 kts 175°
2026-04-14 18:24 9.01134 13.37827 38730 ft 490 kts 175°
2026-04-14 18:25 8.94346 13.38534 38727 ft 490 kts 175°
2026-04-14 18:25 8.87553 13.39241 38742 ft 491 kts 175°
2026-04-14 18:26 8.80749 13.39949 38736 ft 492 kts 175°
2026-04-14 18:26 8.73939 13.40659 38739 ft 492 kts 175°
2026-04-14 18:27 8.67117 13.41369 38749 ft 492 kts 175°
2026-04-14 18:27 8.60288 13.42079 38746 ft 493 kts 175°
2026-04-14 18:28 8.53462 13.42789 38761 ft 493 kts 175°
2026-04-14 18:28 8.46848 13.43476 38759 ft 493 kts 175°
2026-04-14 18:29 8.40007 13.44187 38756 ft 493 kts 175°
2026-04-14 18:29 8.33169 13.44898 38762 ft 493 kts 175°
2026-04-14 18:30 8.26329 13.45608 38758 ft 493 kts 175°
2026-04-14 18:30 8.19544 13.46312 38764 ft 493 kts 175°
2026-04-14 18:31 8.12714 13.47021 38763 ft 493 kts 175°
2026-04-14 18:31 8.05884 13.47729 38761 ft 493 kts 175°
2026-04-14 18:32 7.99095 13.48434 38770 ft 493 kts 175°
2026-04-14 18:32 7.92270 13.49141 38771 ft 493 kts 175°
2026-04-14 18:33 7.85448 13.49849 38776 ft 493 kts 175°
2026-04-14 18:34 7.71796 13.51264 38797 ft 493 kts 175°
2026-04-14 18:34 7.64971 13.51970 38844 ft 492 kts 175°
2026-04-14 18:35 7.58156 13.52676 38886 ft 492 kts 175°
2026-04-14 18:35 7.51345 13.53381 38933 ft 492 kts 175°
2026-04-14 18:36 7.44568 13.54082 38828 ft 491 kts 175°
2026-04-14 18:36 7.37726 13.54790 38834 ft 491 kts 175°
2026-04-14 18:37 7.30964 13.55488 38841 ft 491 kts 175°
2026-04-14 18:37 7.24158 13.56192 38840 ft 491 kts 175°
2026-04-14 18:38 7.17371 13.57002 38841 ft 491 kts 172°
2026-04-14 18:38 7.10615 13.58067 38841 ft 491 kts 172°
2026-04-14 18:39 7.03872 13.59143 38838 ft 491 kts 172°
2026-04-14 18:39 6.97159 13.60173 38837 ft 490 kts 172°
2026-04-14 18:40 6.90417 13.61185 38834 ft 490 kts 172°
2026-04-14 18:40 6.83670 13.62194 38836 ft 490 kts 172°
2026-04-14 18:41 6.76921 13.63205 38832 ft 490 kts 172°
2026-04-14 18:41 6.70215 13.64210 38826 ft 489 kts 172°
2026-04-14 18:42 6.63469 13.65221 38826 ft 489 kts 172°
2026-04-14 18:42 6.56725 13.66232 38826 ft 489 kts 172°
2026-04-14 18:43 6.49997 13.67240 38824 ft 489 kts 172°
2026-04-14 18:43 6.43268 13.68248 38825 ft 489 kts 172°
2026-04-14 18:44 6.36545 13.69258 38829 ft 489 kts 172°
2026-04-14 18:44 6.29851 13.70261 38827 ft 488 kts 172°
2026-04-14 18:45 6.23127 13.71265 38831 ft 488 kts 172°
2026-04-14 18:45 6.16404 13.72269 38828 ft 488 kts 172°
2026-04-14 18:46 6.09682 13.73278 38829 ft 488 kts 172°
2026-04-14 18:46 6.03007 13.74273 38831 ft 488 kts 172°
2026-04-14 18:47 5.96288 13.75273 38832 ft 488 kts 172°
2026-04-14 18:47 5.89574 13.76274 38830 ft 488 kts 172°
2026-04-14 18:48 5.82853 13.77276 38830 ft 488 kts 172°
2026-04-14 18:48 5.76129 13.78279 38828 ft 488 kts 172°
2026-04-14 18:49 5.69410 13.79281 38826 ft 488 kts 172°
2026-04-14 18:49 5.62686 13.80283 38828 ft 488 kts 171°
2026-04-14 18:50 5.55997 13.81280 38828 ft 488 kts 171°
2026-04-14 18:50 5.49270 13.82282 38829 ft 488 kts 171°
2026-04-14 18:51 5.42544 13.83284 38828 ft 488 kts 171°
2026-04-14 18:51 5.35823 13.84285 38833 ft 488 kts 171°
2026-04-14 18:52 5.29136 13.85280 38836 ft 488 kts 171°
2026-04-14 18:52 5.22407 13.86282 38835 ft 488 kts 171°
2026-04-14 18:53 5.15681 13.87283 38835 ft 488 kts 171°
2026-04-14 18:53 5.08961 13.88287 38836 ft 488 kts 171°
2026-04-14 18:54 5.02232 13.89287 38837 ft 488 kts 171°
2026-04-14 18:54 4.95508 13.90286 38839 ft 488 kts 171°
2026-04-14 18:55 4.88830 13.91279 38836 ft 488 kts 171°
2026-04-14 18:55 4.82116 13.92278 38838 ft 488 kts 171°
2026-04-14 18:56 4.75398 13.93277 38837 ft 488 kts 171°
2026-04-14 18:56 4.68681 13.94276 38837 ft 488 kts 171°
2026-04-14 18:57 4.61964 13.95274 38841 ft 488 kts 170°
2026-04-14 18:57 4.55484 13.96238 38842 ft 487 kts 170°
2026-04-14 18:58 4.48760 13.97237 38843 ft 487 kts 170°
2026-04-14 18:58 4.42059 13.98233 38840 ft 487 kts 170°
2026-04-14 18:59 4.35347 13.99229 38841 ft 487 kts 170°
2026-04-14 18:59 4.28676 14.00221 38840 ft 487 kts 170°
2026-04-14 19:00 4.21964 14.01218 38844 ft 487 kts 170°
2026-04-14 19:00 4.15253 14.02214 38844 ft 487 kts 170°
2026-04-14 19:01 4.08550 14.03209 38849 ft 486 kts 170°
2026-04-14 19:01 4.01895 14.04197 38847 ft 486 kts 170°
2026-04-14 19:02 3.95206 14.05191 38854 ft 486 kts 170°
2026-04-14 19:02 3.88508 14.06181 38855 ft 486 kts 170°
2026-04-14 19:03 3.81812 14.07171 38858 ft 486 kts 170°
2026-04-14 19:03 3.75125 14.08161 38850 ft 486 kts 170°
2026-04-14 19:04 3.68430 14.09152 38853 ft 485 kts 170°
2026-04-14 19:04 3.61747 14.10140 38857 ft 485 kts 170°
2026-04-14 19:05 3.55094 14.11125 38862 ft 485 kts 169°
2026-04-14 19:05 3.48401 14.12119 38858 ft 485 kts 169°
2026-04-14 19:06 3.42842 14.12942 38858 ft 486 kts 169°
2026-04-14 19:06 3.36151 14.13930 38855 ft 486 kts 169°
2026-04-14 19:07 3.29462 14.14918 38859 ft 486 kts 169°
2026-04-14 19:07 3.22772 14.15908 38858 ft 486 kts 169°
2026-04-14 19:08 3.16122 14.16891 38857 ft 486 kts 169°
2026-04-14 19:08 3.09425 14.17886 38857 ft 486 kts 169°
2026-04-14 19:09 3.02728 14.18877 38861 ft 486 kts 169°
2026-04-14 19:09 2.96038 14.19866 38864 ft 486 kts 169°
2026-04-14 19:10 2.89349 14.20856 38862 ft 486 kts 169°
2026-04-14 19:10 2.82656 14.21846 38863 ft 486 kts 169°
2026-04-14 19:11 2.75962 14.22837 38862 ft 486 kts 169°
2026-04-14 19:11 2.69317 14.23821 38868 ft 486 kts 169°
2026-04-14 19:12 2.62790 14.24787 38868 ft 486 kts 169°
2026-04-14 19:13 2.52740 14.26274 38870 ft 486 kts 169°
2026-04-14 19:13 2.46041 14.27265 38873 ft 486 kts 169°
2026-04-14 19:14 2.39345 14.28256 38873 ft 486 kts 169°
2026-04-14 19:14 2.32650 14.29247 38872 ft 486 kts 169°
2026-04-14 19:15 2.25952 14.30239 38877 ft 486 kts 169°
2026-04-14 19:15 2.19303 14.31223 38877 ft 486 kts 169°
2026-04-14 19:16 2.12605 14.32210 38874 ft 486 kts 169°
2026-04-14 19:16 2.05906 14.33198 38876 ft 486 kts 169°
2026-04-14 19:17 1.99216 14.34187 38873 ft 486 kts 169°
2026-04-14 19:17 1.92534 14.35174 38875 ft 485 kts 169°
2026-04-14 19:18 1.85895 14.36155 38875 ft 484 kts 169°
2026-04-14 19:18 1.79234 14.37138 38875 ft 484 kts 169°
2026-04-14 19:19 1.72569 14.38123 38874 ft 483 kts 169°
2026-04-14 19:19 1.65918 14.39106 38876 ft 482 kts 169°
2026-04-14 19:20 1.59267 14.40088 38877 ft 482 kts 169°
2026-04-14 19:20 1.52668 14.41063 38880 ft 482 kts 169°
2026-04-14 19:21 1.46030 14.42043 38878 ft 482 kts 169°
2026-04-14 19:21 1.39391 14.43023 38881 ft 481 kts 169°
2026-04-14 19:22 1.32759 14.44003 38882 ft 481 kts 169°
2026-04-14 19:22 1.26164 14.44976 38884 ft 481 kts 169°
2026-04-14 19:23 1.19543 14.45954 38888 ft 481 kts 169°
2026-04-14 19:23 1.12914 14.46932 38888 ft 481 kts 169°
2026-04-14 19:24 1.06291 14.47910 38891 ft 482 kts 169°
2026-04-14 19:24 0.99652 14.48890 38890 ft 481 kts 169°
2026-04-14 19:25 0.93030 14.49868 38889 ft 481 kts 169°
2026-04-14 19:25 0.86395 14.50847 38891 ft 481 kts 169°
2026-04-14 19:26 0.79812 14.51819 38891 ft 481 kts 169°
2026-04-14 19:26 0.73179 14.52798 38886 ft 481 kts 169°
2026-04-14 19:27 0.66541 14.53778 38885 ft 482 kts 169°
2026-04-14 19:27 0.59899 14.54758 38889 ft 482 kts 169°
2026-04-14 19:28 0.53254 14.55739 38890 ft 483 kts 170°
2026-04-14 19:28 0.46636 14.56712 38889 ft 483 kts 169°
2026-04-14 19:29 0.39975 14.57697 38890 ft 484 kts 169°
2026-04-14 19:29 0.33308 14.58682 38887 ft 484 kts 169°
2026-04-14 19:30 0.26642 14.59666 38888 ft 484 kts 169°
2026-04-14 19:30 0.19971 14.60651 38887 ft 485 kts 169°
2026-04-14 19:31 0.13328 14.61631 38886 ft 485 kts 169°
2026-04-14 19:31 0.06653 14.62616 38890 ft 485 kts 169°
2026-04-14 19:32 -0.00032 14.63607 38888 ft 485 kts 169°
2026-04-14 19:32 -0.06714 14.64591 38891 ft 485 kts 170°
2026-04-14 19:33 -0.13405 14.65577 38889 ft 486 kts 170°
2026-04-14 19:33 -0.20096 14.66568 38891 ft 486 kts 170°
2026-04-14 19:34 -0.30106 14.68042 38891 ft 486 kts 170°
2026-04-14 19:34 -0.36801 14.69028 38892 ft 486 kts 170°
2026-04-14 19:35 -0.43509 14.70018 38891 ft 486 kts 170°
2026-04-14 19:35 -0.50208 14.71006 38895 ft 486 kts 170°
2026-04-14 19:36 -0.56909 14.71995 38896 ft 486 kts 170°
2026-04-14 19:36 -0.63555 14.72975 38897 ft 486 kts 170°
2026-04-14 19:37 -0.70247 14.73963 38900 ft 485 kts 170°
2026-04-14 19:37 -0.76931 14.74949 38898 ft 485 kts 170°
2026-04-14 19:38 -0.83612 14.75935 38901 ft 484 kts 170°
2026-04-14 19:38 -0.90282 14.76919 38905 ft 484 kts 170°
2026-04-14 19:39 -0.96947 14.77903 38904 ft 484 kts 170°
2026-04-14 19:39 -1.03571 14.78881 38906 ft 484 kts 170°
2026-04-14 19:40 -1.10192 14.79858 38906 ft 483 kts 170°
2026-04-14 19:40 -1.16860 14.80841 38910 ft 483 kts 170°
2026-04-14 19:41 -1.23513 14.81823 38910 ft 483 kts 170°
2026-04-14 19:41 -1.30160 14.82804 38908 ft 483 kts 170°
2026-04-14 19:42 -1.36817 14.83787 38912 ft 483 kts 170°
2026-04-14 19:42 -1.43467 14.84768 38911 ft 483 kts 170°
2026-04-14 19:43 -1.50114 14.85750 38910 ft 482 kts 170°
2026-04-14 19:43 -1.56713 14.86727 38912 ft 482 kts 170°
2026-04-14 19:44 -1.63359 14.87707 38916 ft 482 kts 170°
2026-04-14 19:44 -1.69994 14.88686 38916 ft 482 kts 170°
2026-04-14 19:45 -1.76642 14.89667 38920 ft 482 kts 170°
2026-04-14 19:45 -1.83287 14.90649 38921 ft 483 kts 170°
2026-04-14 19:46 -1.89899 14.91629 38923 ft 483 kts 170°
2026-04-14 19:46 -1.96557 14.92610 38922 ft 484 kts 170°
2026-04-14 19:47 -2.03227 14.93596 38924 ft 484 kts 170°
2026-04-14 19:47 -2.09903 14.94583 38925 ft 485 kts 170°
2026-04-14 19:48 -2.16583 14.95571 38933 ft 485 kts 170°
2026-04-14 19:48 -2.23282 14.96561 38932 ft 485 kts 170°
2026-04-14 19:49 -2.29923 14.97543 38938 ft 485 kts 170°
2026-04-14 19:49 -2.36611 14.98533 38936 ft 486 kts 170°
2026-04-14 19:50 -2.43311 14.99524 38936 ft 486 kts 170°
2026-04-14 19:50 -2.50001 15.00513 38940 ft 486 kts 170°
2026-04-14 19:51 -2.56711 15.01506 38938 ft 487 kts 170°
2026-04-14 19:51 -2.63378 15.02493 38941 ft 488 kts 170°
2026-04-14 19:52 -2.70103 15.03488 38941 ft 488 kts 170°
2026-04-14 19:52 -2.73468 15.03986 38807 ft 485 kts 170°
2026-04-14 19:52 -2.76815 15.04481 38067 ft 487 kts 170°
2026-04-14 19:53 -2.80145 15.04974 37176 ft 492 kts 170°
2026-04-14 19:53 -2.83553 15.05479 36324 ft 496 kts 171°
2026-04-14 19:53 -2.86978 15.05986 35515 ft 499 kts 171°
2026-04-14 19:53 -2.90422 15.06496 34718 ft 502 kts 171°
2026-04-14 19:54 -2.92718 15.06836 34188 ft 504 kts 171°
2026-04-14 19:54 -2.99708 15.07870 32376 ft 510 kts 171°
2026-04-14 19:54 -3.03238 15.08392 31460 ft 513 kts 171°
2026-04-14 19:55 -3.06778 15.08916 30597 ft 515 kts 171°
2026-04-14 19:55 -3.10324 15.09441 29784 ft 514 kts 171°
2026-04-14 19:55 -3.13794 15.09954 28490 ft 497 kts 171°
2026-04-14 19:55 -3.17202 15.10459 26807 ft 493 kts 171°
2026-04-14 19:56 -3.20581 15.10959 25272 ft 487 kts 171°
2026-04-14 19:56 -3.23910 15.11452 23842 ft 480 kts 171°
2026-04-14 19:56 -3.27192 15.11937 22257 ft 473 kts 170°
2026-04-14 19:56 -3.30378 15.12409 20835 ft 462 kts 170°
2026-04-14 19:57 -3.33528 15.12874 19495 ft 451 kts 170°
2026-04-14 19:57 -3.36599 15.13329 18179 ft 440 kts 170°
2026-04-14 19:57 -3.39594 15.13773 16848 ft 429 kts 169°
2026-04-14 19:57 -3.42463 15.14197 16233 ft 401 kts 169°
2026-04-14 19:58 -3.45004 15.14572 15718 ft 381 kts 169°
2026-04-14 19:58 -3.47609 15.14959 15155 ft 381 kts 169°
2026-04-14 19:58 -3.50239 15.15352 14548 ft 382 kts 169°
2026-04-14 19:58 -3.52863 15.15742 13954 ft 382 kts 169°
2026-04-14 19:59 -3.55488 15.16132 13304 ft 381 kts 169°
2026-04-14 19:59 -3.58082 15.16517 12701 ft 379 kts 169°
2026-04-14 19:59 -3.60692 15.16903 12091 ft 377 kts 169°
2026-04-14 19:59 -3.63279 15.17285 11488 ft 375 kts 169°
2026-04-14 20:00 -3.65849 15.17667 10950 ft 372 kts 169°
2026-04-14 20:00 -3.68358 15.18038 10806 ft 356 kts 169°
2026-04-14 20:00 -3.70764 15.18394 10684 ft 342 kts 169°
2026-04-14 20:00 -3.73068 15.18734 10556 ft 328 kts 169°
2026-04-14 20:01 -3.75277 15.19061 10433 ft 315 kts 169°
2026-04-14 20:01 -3.77402 15.19376 10311 ft 302 kts 168°
2026-04-14 20:01 -3.79435 15.19678 10031 ft 298 kts 168°
2026-04-14 20:01 -3.81510 15.19986 9640 ft 297 kts 168°
2026-04-14 20:02 -3.83529 15.20292 9216 ft 296 kts 168°
2026-04-14 20:02 -3.85389 15.21100 8793 ft 290 kts 144°
2026-04-14 20:02 -3.87027 15.22258 8435 ft 287 kts 142°
2026-04-14 20:02 -3.88642 15.23421 8096 ft 285 kts 143°
2026-04-14 20:03 -3.90265 15.24561 7766 ft 284 kts 144°
2026-04-14 20:03 -3.91888 15.25682 7435 ft 283 kts 144°
2026-04-14 20:03 -3.93509 15.26788 7095 ft 281 kts 145°
2026-04-14 20:03 -3.95122 15.27882 6750 ft 280 kts 145°
2026-04-14 20:04 -3.96732 15.28971 6421 ft 278 kts 146°
2026-04-14 20:04 -3.98315 15.30040 6077 ft 277 kts 146°
2026-04-14 20:04 -3.99912 15.31116 5738 ft 275 kts 146°
2026-04-14 20:04 -4.01499 15.32185 5420 ft 274 kts 146°
2026-04-14 20:05 -4.03066 15.33241 5168 ft 268 kts 146°
2026-04-14 20:05 -4.04583 15.34264 5031 ft 258 kts 146°
2026-04-14 20:05 -4.06002 15.35319 4851 ft 251 kts 141°
2026-04-14 20:05 -4.07347 15.36429 4618 ft 249 kts 141°
2026-04-14 20:06 -4.08676 15.37535 4333 ft 248 kts 141°
2026-04-14 20:06 -4.10010 15.38630 4073 ft 246 kts 143°
2026-04-14 20:06 -4.11504 15.39319 3963 ft 231 kts 175°
2026-04-14 20:06 -4.12999 15.39015 3945 ft 215 kts 207°
2026-04-14 20:07 -4.14196 15.38237 3864 ft 202 kts 223°
2026-04-14 20:07 -4.15043 15.37169 3775 ft 191 kts 234°
2026-04-14 20:07 -4.15844 15.36131 3543 ft 187 kts 227°
2026-04-14 20:07 -4.16709 15.35159 3272 ft 186 kts 229°
2026-04-14 20:08 -4.17526 15.34165 3018 ft 183 kts 230°
2026-04-14 20:08 -4.18333 15.33194 2774 ft 179 kts 229°
2026-04-14 20:08 -4.19122 15.32253 2542 ft 173 kts 229°
2026-04-14 20:08 -4.19870 15.31353 2314 ft 162 kts 229°
2026-04-14 20:09 -4.20569 15.30515 2097 ft 152 kts 229°
2026-04-14 20:09 -4.21228 15.29726 1912 ft 143 kts 230°
2026-04-14 20:09 -4.21851 15.28971 1730 ft 140 kts 230°
2026-04-14 20:09 -4.22464 15.28216 1547 ft 140 kts 231°
2026-04-14 20:10 -4.23092 15.27469 1347 ft 140 kts 230°
2026-04-14 20:10 -4.23723 15.26716 1158 ft 141 kts 230°
2026-04-14 20:10 -4.24349 15.25981 1062 ft 130 kts 230°
2026-04-14 20:10 -4.24780 15.25466 1057 ft 54 kts 230°
2026-04-14 20:11 -4.24999 15.25207 1055 ft 47 kts 230°
2026-04-14 20:11 -4.25201 15.24967 1050 ft 44 kts 230°
2026-04-14 20:11 -4.25390 15.24743 1048 ft 41 kts 230°
2026-04-14 20:11 -4.25567 15.24534 1048 ft 38 kts 230°
2026-04-14 20:12 -4.25732 15.24338 1047 ft 36 kts 230°
2026-04-14 20:12 -4.25821 15.24237 1045 ft 7 kts 211°
2026-04-14 20:12 -4.25883 15.24218 1045 ft 13 kts 191°
2026-04-14 20:12 -4.25954 15.24244 1050 ft 9 kts 143°
2026-04-14 20:13 -4.25988 15.24286 1054 ft 11 kts 110°
2026-04-14 20:13 -4.25943 15.24386 1056 ft 23 kts 50°
2026-04-14 20:13 -4.25830 15.24521 1056 ft 25 kts 50°
2026-04-14 20:13 -4.25712 15.24659 1056 ft 27 kts 50°
2026-04-14 20:14 -4.25598 15.24794 1055 ft 20 kts 50°
2026-04-14 20:14 -4.25626 15.24890 1055 ft 16 kts 138°
2026-04-14 20:14 -4.25685 15.24943 1054 ft 10 kts 129°
2026-04-14 20:14 -4.25704 15.24993 1054 ft 8 kts 112°
2026-04-14 20:15 -4.25730 15.25023 1054 ft 6 kts 138°
2026-04-14 20:15 -4.25743 15.25034 1054 ft 1 kts 138°
2026-04-14 20:15 -4.25750 15.25041 1054 ft 1 kts 139°
2026-04-14 20:15 -4.25766 15.25054 1054 ft 3 kts 139°
2026-04-14 20:16 -4.25768 15.25056 1054 ft 0 kts 139°
2026-04-14 20:16 -4.25772 15.25059 1054 ft 0 kts 139°